{"data":{"norad_id":67408,"intl_designator":"2026-005E","name":"STARLINK-36509","alt_names":[],"object_type":"PAYLOAD","status":"ACTIVE","operator":null,"country":"US","launch_date":"2026-01-12","launch_site_code":"AFETR","launch_vehicle":null,"mission":null,"orbit_class":"UNKNOWN","rcs_meters":null,"size_class":null,"mass_kg":null,"dimensions":null,"purposes":["comms"],"wikipedia_slug":null,"has_3d_model":false,"image_url":null,"decayed_at":null,"tle_current":{"epoch":"2026-09-19T22:08:24.773280Z","epoch_age_seconds":125305,"freshness":"FRESH","line1":"1 67408U 26005E   26262.92250895  .00016862  00000+0  62062-3 0  9997","line2":"2 67408  42.9969 220.9081 0000264 342.2959  17.7884 15.27592680 38397","mean_motion":15.2759268,"eccentricity":2.64e-5,"inclination_deg":42.9969,"raan_deg":220.9081,"arg_perigee_deg":342.2959,"mean_anomaly_deg":17.7884,"bstar":0.00062062,"rev_number":3839,"period_min":94.265966239116,"perigee_km":482.82999351011,"apogee_km":483.19226213126,"semimajor_km":6861.1481278207,"source":"CELESTRAK","updated_at":"2026-09-20T09:00:43.519198Z"}}}